Time,TemperatureF,DewpointF,PressureIn,WindDirection,WindDirectionDegrees,WindSpeedMPH,WindSpeedGustMPH,Humidity,HourlyPrecipIn,Conditions,Clouds,dailyrainin,SoftwareType,DateUTC
2013-01-31 00:01:00,10.0,-3.0,29.72,West,266,17.0,17.0,55,0.00,,,0.00,,2013-01-31 06:01:00,
2013-01-31 00:10:00,10.0,-3.0,29.72,West,266,17.0,17.0,55,0.00,,,0.00,,2013-01-31 06:10:00,
2013-01-31 08:02:00,-2.0,-14.0,29.90,NW,319,8.0,15.0,55,0.00,,,0.00,,2013-01-31 14:02:00,
2013-01-31 08:22:00,-2.0,-14.0,29.90,NW,304,16.0,16.0,55,0.00,,,0.00,,2013-01-31 14:22:00,
2013-01-31 08:32:00,-2.0,-14.0,29.90,NW,312,9.0,12.0,55,0.00,,,0.00,,2013-01-31 14:32:00,
2013-01-31 08:52:00,-1.0,-13.0,29.90,WNW,295,8.0,10.0,55,0.00,,,0.00,,2013-01-31 14:52:00,
2013-01-31 09:03:00,-1.0,-13.0,29.90,West,277,9.0,16.0,55,0.00,,,0.00,,2013-01-31 15:03:00,
2013-01-31 09:22:00,-1.0,-13.0,29.93,WNW,287,13.0,13.0,55,0.00,,,0.00,,2013-01-31 15:22:00,
2013-01-31 09:32:00,-1.0,-13.0,29.93,WSW,256,6.0,8.0,55,0.00,,,0.00,,2013-01-31 15:32:00,
2013-01-31 09:51:00,-1.0,-13.0,29.93,NNW,338,9.0,10.0,55,0.00,,,0.00,,2013-01-31 15:51:00,
2013-01-31 10:03:00,0.0,-12.0,29.96,NNW,335,8.0,13.0,55,0.00,,,0.00,,2013-01-31 16:03:00,
2013-01-31 10:22:00,-1.0,-13.0,29.96,WNW,285,16.0,16.0,55,0.00,,,0.00,,2013-01-31 16:22:00,
2013-01-31 10:33:00,0.0,-12.0,29.96,WNW,288,16.0,16.0,55,0.00,,,0.00,,2013-01-31 16:33:00,
2013-01-31 10:52:00,0.0,-12.0,29.96,NNW,346,11.0,20.0,55,0.00,,,0.00,,2013-01-31 16:52:00,
2013-01-31 11:02:00,0.0,-12.0,29.96,NW,324,5.0,23.0,55,0.00,,,0.00,,2013-01-31 17:02:00,
2013-01-31 11:23:00,1.0,-11.0,29.99,WNW,286,16.0,26.0,55,0.00,,,0.00,,2013-01-31 17:23:00,
2013-01-31 11:32:00,1.0,-11.0,29.99,NW,304,8.0,19.0,55,0.00,,,0.00,,2013-01-31 17:32:00,
2013-01-31 11:53:00,2.0,-10.0,29.99,NW,310,6.0,13.0,55,0.00,,,0.00,,2013-01-31 17:53:00,
2013-01-31 12:03:00,2.0,-10.0,29.99,NW,320,21.0,21.0,55,0.00,,,0.00,,2013-01-31 18:03:00,
2013-01-31 12:12:00,2.0,-10.0,29.99,WNW,287,15.0,19.0,55,0.00,,,0.00,,2013-01-31 18:12:00,
2013-01-31 12:22:00,2.0,-10.0,29.99,WNW,287,15.0,19.0,55,0.00,,,0.00,,2013-01-31 18:22:00,
2013-01-31 12:32:00,2.0,-10.0,30.02,WNW,283,16.0,16.0,55,0.00,,,0.00,,2013-01-31 18:32:00,
2013-01-31 12:43:00,2.0,-10.0,30.02,WNW,283,16.0,16.0,55,0.00,,,0.00,,2013-01-31 18:43:00,
2013-01-31 12:52:00,2.0,-10.0,30.02,West,278,9.0,24.0,55,0.00,,,0.00,,2013-01-31 18:52:00,
2013-01-31 13:02:00,1.0,-11.0,30.02,NW,312,14.0,14.0,55,0.00,,,0.00,,2013-01-31 19:02:00,
2013-01-31 13:12:00,1.0,-11.0,30.02,NW,312,14.0,14.0,55,0.00,,,0.00,,2013-01-31 19:12:00,
2013-01-31 13:22:00,1.0,-11.0,30.02,WNW,297,13.0,23.0,55,0.00,,,0.00,,2013-01-31 19:22:00,
2013-01-31 13:32:00,1.0,-11.0,30.02,North,0,19.0,19.0,55,0.00,,,0.00,,2013-01-31 19:32:00,
2013-01-31 13:42:00,1.0,-11.0,30.02,North,0,19.0,19.0,55,0.00,,,0.00,,2013-01-31 19:42:00,
2013-01-31 13:51:00,1.0,-11.0,30.02,WNW,296,14.0,27.0,55,0.00,,,0.00,,2013-01-31 19:51:00,
2013-01-31 14:02:00,2.0,-10.0,30.05,WNW,293,8.0,19.0,55,0.00,,,0.00,,2013-01-31 20:02:00,
2013-01-31 14:11:00,2.0,-10.0,30.05,WNW,293,8.0,19.0,55,0.00,,,0.00,,2013-01-31 20:11:00,
2013-01-31 14:21:00,2.0,-10.0,30.05,NW,316,12.0,16.0,55,0.00,,,0.00,,2013-01-31 20:21:00,
2013-01-31 14:31:00,2.0,-10.0,30.05,WNW,301,19.0,19.0,55,0.00,,,0.00,,2013-01-31 20:31:00,
2013-01-31 14:42:00,2.0,-10.0,30.05,NW,308,8.0,19.0,55,0.00,,,0.00,,2013-01-31 20:42:00,
2013-01-31 14:52:00,2.0,-10.0,30.05,NW,308,8.0,19.0,55,0.00,,,0.00,,2013-01-31 20:52:00,
2013-01-31 15:02:00,1.0,-11.0,30.05,WNW,288,21.0,21.0,55,0.00,,,0.00,,2013-01-31 21:02:00,
2013-01-31 15:12:00,0.0,-12.0,30.08,NW,305,12.0,17.0,55,0.00,,,0.00,,2013-01-31 21:12:00,
2013-01-31 15:21:00,0.0,-12.0,30.08,NW,305,12.0,17.0,55,0.00,,,0.00,,2013-01-31 21:21:00,
2013-01-31 15:32:00,1.0,-11.0,30.08,NW,317,8.0,14.0,55,0.00,,,0.00,,2013-01-31 21:32:00,
2013-01-31 15:42:00,1.0,-11.0,30.08,NW,317,8.0,14.0,55,0.00,,,0.00,,2013-01-31 21:42:00,
2013-01-31 15:52:00,0.0,-12.0,30.08,NNW,332,13.0,13.0,55,0.00,,,0.00,,2013-01-31 21:52:00,
2013-01-31 16:03:00,0.0,-12.0,30.08,NW,306,14.0,14.0,55,0.00,,,0.00,,2013-01-31 22:03:00,
2013-01-31 16:11:00,1.0,-11.0,30.08,North,6,6.0,12.0,55,0.00,,,0.00,,2013-01-31 22:11:00,
2013-01-31 16:22:00,1.0,-11.0,30.08,North,6,6.0,12.0,55,0.00,,,0.00,,2013-01-31 22:22:00,
2013-01-31 16:32:00,0.0,-12.0,30.11,NNW,337,5.0,12.0,55,0.00,,,0.00,,2013-01-31 22:32:00,
2013-01-31 16:42:00,0.0,-12.0,30.11,NNW,337,5.0,12.0,55,0.00,,,0.00,,2013-01-31 22:42:00,
2013-01-31 16:51:00,0.0,-12.0,30.11,WNW,296,9.0,15.0,55,0.00,,,0.00,,2013-01-31 22:51:00,
2013-01-31 17:02:00,-1.0,-13.0,30.11,NW,324,8.0,8.0,55,0.00,,,0.00,,2013-01-31 23:02:00,
2013-01-31 17:22:00,-1.0,-13.0,30.11,WNW,295,6.0,8.0,55,0.00,,,0.00,,2013-01-31 23:22:00,
2013-01-31 17:32:00,-2.0,-14.0,30.14,NW,306,8.0,13.0,55,0.00,,,0.00,,2013-01-31 23:32:00,
2013-01-31 17:52:00,-2.0,-14.0,30.14,WNW,299,5.0,8.0,55,0.00,,,0.00,,2013-01-31 23:52:00,
2013-01-31 18:01:00,-3.0,-15.0,30.14,NW,326,4.0,16.0,55,0.00,,,0.00,,2013-02-01 00:01:00,
2013-01-31 18:22:00,-3.0,-15.0,30.14,NW,315,13.0,20.0,55,0.00,,,0.00,,2013-02-01 00:22:00,
2013-01-31 18:32:00,-3.0,-15.0,30.16,NW,320,12.0,12.0,55,0.00,,,0.00,,2013-02-01 00:32:00,
2013-01-31 18:51:00,-3.0,-15.0,30.16,WNW,290,5.0,13.0,55,0.00,,,0.00,,2013-02-01 00:51:00,
2013-01-31 19:01:00,-3.0,-15.0,30.16,NW,321,8.0,14.0,55,0.00,,,0.00,,2013-02-01 01:01:00,
2013-01-31 19:11:00,-4.0,-16.0,30.16,WNW,288,10.0,13.0,55,0.00,,,0.00,,2013-02-01 01:11:00,
2013-01-31 19:21:00,-4.0,-16.0,30.16,WNW,288,10.0,13.0,55,0.00,,,0.00,,2013-02-01 01:21:00,
2013-01-31 19:32:00,-4.0,-16.0,30.19,North,5,0.0,13.0,55,0.00,,,0.00,,2013-02-01 01:32:00,
2013-01-31 19:52:00,-4.0,-16.0,30.16,NNW,333,10.0,10.0,55,0.00,,,0.00,,2013-02-01 01:52:00,
2013-01-31 20:02:00,-5.0,-17.0,30.19,NNW,343,8.0,10.0,55,0.00,,,0.00,,2013-02-01 02:02:00,
2013-01-31 20:21:00,-5.0,-17.0,30.19,North,0,12.0,12.0,55,0.00,,,0.00,,2013-02-01 02:21:00,
2013-01-31 20:31:00,-5.0,-17.0,30.19,WNW,298,6.0,8.0,55,0.00,,,0.00,,2013-02-01 02:31:00,
2013-01-31 20:52:00,-5.0,-17.0,30.19,NW,324,8.0,16.0,55,0.00,,,0.00,,2013-02-01 02:52:00,
2013-01-31 21:02:00,-5.0,-17.0,30.19,WNW,291,8.0,13.0,55,0.00,,,0.00,,2013-02-01 03:02:00,
2013-01-31 21:21:00,-5.0,-17.0,30.22,WNW,295,8.0,13.0,55,0.00,,,0.00,,2013-02-01 03:21:00,
2013-01-31 21:32:00,-6.0,-18.0,30.22,West,279,0.0,10.0,55,0.00,,,0.00,,2013-02-01 03:32:00,
2013-01-31 21:51:00,-6.0,-18.0,30.22,WNW,283,12.0,12.0,55,0.00,,,0.00,,2013-02-01 03:51:00,
2013-01-31 22:02:00,-6.0,-18.0,30.22,NW,322,8.0,16.0,55,0.00,,,0.00,,2013-02-01 04:02:00,
2013-01-31 22:11:00,-6.0,-18.0,30.22,West,275,5.0,8.0,55,0.00,,,0.00,,2013-02-01 04:11:00,
2013-01-31 22:21:00,-6.0,-18.0,30.22,West,275,5.0,8.0,55,0.00,,,0.00,,2013-02-01 04:21:00,
2013-01-31 22:32:00,-7.0,-19.0,30.22,WNW,287,6.0,8.0,55,0.00,,,0.00,,2013-02-01 04:32:00,
2013-01-31 22:51:00,-7.0,-19.0,30.22,WNW,283,10.0,12.0,55,0.00,,,0.00,,2013-02-01 04:51:00,
2013-01-31 23:03:00,-7.0,-19.0,30.22,West,264,9.0,12.0,55,0.00,,,0.00,,2013-02-01 05:03:00,
2013-01-31 23:22:00,-7.0,-19.0,30.25,West,279,9.0,17.0,55,0.00,,,0.00,,2013-02-01 05:22:00,
2013-01-31 23:32:00,-8.0,-20.0,30.25,WNW,299,9.0,15.0,55,0.00,,,0.00,,2013-02-01 05:32:00,
2013-01-31 23:52:00,-7.0,-19.0,30.25,NW,326,8.0,14.0,55,0.00,,,0.00,,2013-02-01 05:52:00,